| time (UTC) | temp F | wind direction | speed MPH | gust MPH | rain 1hr in | rain 24hr in | rain mn in | humidity % | barometer mb |
| 20260508023051 | 47 | 113 | 0.0 | 2.0 | 0.00 | 0.35 | 0.11 | 95 | 1015.9 |
| 20260508022542 | 47 | 0 | 0.0 | 1.0 | 0.00 | 0.35 | 0.11 | 95 | 1015.9 |
| 20260508022045 | 47 | 0 | 0.0 | 1.0 | 0.00 | 0.35 | 0.11 | 95 | 1016.0 |
| 20260508021553 | 47 | 0 | 0.0 | 2.0 | 0.00 | 0.35 | 0.11 | 95 | 1015.9 |
| 20260508021044 | 47 | 0 | 0.0 | 2.0 | 0.02 | 0.35 | 0.11 | 95 | 1016.1 |
| 20260508020543 | 47 | 0 | 0.0 | 2.0 | 0.03 | 0.35 | 0.11 | 95 | 1016.0 |
| 20260508020051 | 47 | 0 | 0.0 | 2.0 | 0.07 | 0.35 | 0.11 | 95 | 1016.1 |
| 20260508015543 | 47 | 0 | 0.0 | 2.0 | 0.10 | 0.35 | 0.11 | 95 | 1016.1 |
| 20260508015043 | 47 | 0 | 0.0 | 2.0 | 0.11 | 0.35 | 0.11 | 95 | 1016.1 |
| 20260508014553 | 47 | 0 | 0.0 | 3.0 | 0.11 | 0.35 | 0.11 | 95 | 1016.0 |
| 20260508014043 | 47 | 0 | 0.0 | 3.0 | 0.11 | 0.35 | 0.11 | 94 | 1016.0 |
| 20260508013544 | 47 | 113 | 1.0 | 3.0 | 0.11 | 0.35 | 0.11 | 94 | 1016.0 |
| 20260508013058 | 47 | 106 | 1.0 | 3.0 | 0.11 | 0.35 | 0.11 | 94 | 1015.9 |
| 20260508012544 | 48 | 111 | 1.0 | 7.0 | 0.11 | 0.35 | 0.11 | 94 | 1015.9 |
| 20260508012043 | 48 | 70 | 1.0 | 7.0 | 0.11 | 0.35 | 0.11 | 94 | 1015.8 |
| 20260508011554 | 48 | 94 | 2.0 | 4.0 | 0.10 | 0.34 | 0.10 | 94 | 1015.8 |
| 20260508011042 | 48 | 63 | 0.0 | 1.0 | 0.08 | 0.33 | 0.08 | 94 | 1016.0 |
| 20260508010542 | 48 | 0 | 0.0 | 2.0 | 0.07 | 0.32 | 0.07 | 94 | 1016.1 |
| 20260508010050 | 48 | 63 | 0.0 | 2.0 | 0.03 | 0.27 | 0.03 | 93 | 1016.1 |
| 20260508005543 | 48 | 63 | 0.0 | 2.0 | 0.00 | 0.25 | 0.00 | 93 | 1016.1 |
| 20260508005048 | 48 | 0 | 0.0 | 2.0 | 0.00 | 0.24 | 0.00 | 93 | 1016.0 |
| 20260508004553 | 48 | 0 | 0.0 | 4.0 | 0.00 | 0.24 | 0.00 | 93 | 1016.0 |
| 20260508004043 | 48 | 0 | 1.0 | 4.0 | 0.00 | 0.24 | 0.00 | 93 | 1016.0 |
| 20260508003543 | 48 | 90 | 1.0 | 4.0 | 0.00 | 0.24 | 0.00 | 94 | 1015.9 |
| 20260508003051 | 48 | 0 | 0.0 | 4.0 | 0.00 | 0.24 | 0.00 | 94 | 1016.0 |
| 20260508002543 | 48 | 0 | 0.0 | 4.0 | 0.00 | 0.24 | 0.00 | 94 | 1016.0 |
| 20260508002045 | 48 | 119 | 1.0 | 6.0 | 0.00 | 0.24 | 0.00 | 93 | 1016.0 |
| 20260508001554 | 48 | 77 | 1.0 | 6.0 | 0.00 | 0.24 | 0.00 | 93 | 1015.9 |
| 20260508001043 | 48 | 97 | 3.0 | 6.0 | 0.00 | 0.24 | 0.00 | 93 | 1015.9 |
| 20260508000544 | 48 | 100 | 2.0 | 6.0 | 0.00 | 0.24 | 0.00 | 93 | 1016.0 |
| 20260508000053 | 48 | 92 | 2.0 | 4.0 | 0.00 | 0.24 | 0.00 | 93 | 1016.1 |
| 20260507235543 | 48 | 0 | 1.0 | 3.0 | 0.00 | 0.24 | 0.00 | 93 | 1016.1 |
| 20260507235043 | 48 | 0 | 0.0 | 4.0 | 0.00 | 0.24 | 0.00 | 93 | 1016.1 |
| 20260507234557 | 48 | 83 | 0.0 | 4.0 | 0.00 | 0.24 | 0.00 | 93 | 1016.1 |
| 20260507234043 | 48 | 80 | 1.0 | 7.0 | 0.00 | 0.24 | 0.00 | 93 | 1016.1 |
| 20260507233543 | 48 | 103 | 1.0 | 7.0 | 0.00 | 0.24 | 0.00 | 93 | 1016.1 |
| 20260507233055 | 48 | 60 | 2.0 | 8.0 | 0.00 | 0.24 | 0.00 | 93 | 1016.1 |
| 20260507232547 | 48 | 67 | 3.0 | 8.0 | 0.00 | 0.24 | 0.00 | 93 | 1016.2 |
| 20260507232042 | 48 | 56 | 2.0 | 7.0 | 0.00 | 0.24 | 0.00 | 93 | 1016.2 |
| 20260507231554 | 49 | 95 | 4.0 | 8.0 | 0.00 | 0.24 | 0.00 | 93 | 1016.3 |
| 20260507231043 | 49 | 86 | 2.0 | 8.0 | 0.00 | 0.24 | 0.00 | 93 | 1016.2 |
| 20260507230544 | 49 | 86 | 3.0 | 8.0 | 0.00 | 0.24 | 0.00 | 93 | 1016.3 |
| 20260507230058 | 49 | 104 | 3.0 | 8.0 | 0.00 | 0.24 | 0.00 | 93 | 1016.2 |
| 20260507225543 | 49 | 93 | 2.0 | 6.0 | 0.00 | 0.24 | 0.00 | 93 | 1016.2 |
| 20260507225044 | 49 | 101 | 2.0 | 6.0 | 0.00 | 0.24 | 0.00 | 93 | 1016.3 |
| 20260507224554 | 49 | 81 | 1.0 | 5.0 | 0.00 | 0.24 | 0.00 | 93 | 1016.2 |
| 20260507224043 | 49 | 36 | 1.0 | 4.0 | 0.00 | 0.24 | 0.00 | 93 | 1016.2 |
| 20260507223545 | 49 | 36 | 1.0 | 4.0 | 0.00 | 0.24 | 0.00 | 93 | 1016.3 |
| 20260507223053 | 49 | 0 | 1.0 | 4.0 | 0.00 | 0.24 | 0.00 | 93 | 1016.2 |
| 20260507222543 | 49 | 0 | 0.0 | 4.0 | 0.00 | 0.24 | 0.00 | 93 | 1016.2 |
| 20260507222043 | 49 | 0 | 0.0 | 4.0 | 0.00 | 0.24 | 0.00 | 93 | 1016.3 |
| 20260507221553 | 49 | 0 | 0.0 | 4.0 | 0.00 | 0.24 | 0.00 | 93 | 1016.2 |
| 20260507221048 | 49 | 0 | 0.0 | 4.0 | 0.00 | 0.24 | 0.00 | 93 | 1016.1 |
| 20260507220543 | 49 | 0 | 0.0 | 6.0 | 0.00 | 0.24 | 0.00 | 93 | 1015.9 |
| 20260507220058 | 49 | 5 | 1.0 | 6.0 | 0.00 | 0.24 | 0.00 | 93 | 1015.9 |
| 20260507215544 | 49 | 101 | 2.0 | 8.0 | 0.00 | 0.24 | 0.24 | 93 | 1016.0 |
| 20260507215044 | 49 | 75 | 3.0 | 8.0 | 0.00 | 0.24 | 0.24 | 93 | 1016.0 |
| 20260507214552 | 49 | 98 | 3.0 | 8.0 | 0.00 | 0.24 | 0.24 | 93 | 1015.9 |
| 20260507214044 | 49 | 80 | 3.0 | 8.0 | 0.00 | 0.24 | 0.24 | 93 | 1016.0 |
| 20260507213543 | 49 | 86 | 1.0 | 6.0 | 0.00 | 0.24 | 0.24 | 93 | 1016.0 |
| 20260507213059 | 49 | 63 | 2.0 | 6.0 | 0.00 | 0.24 | 0.24 | 93 | 1015.9 |
| 20260507212543 | 49 | 71 | 2.0 | 4.0 | 0.00 | 0.24 | 0.24 | 93 | 1015.9 |
| 20260507212044 | 49 | 86 | 1.0 | 4.0 | 0.00 | 0.24 | 0.24 | 92 | 1015.9 |
| 20260507211554 | 49 | 88 | 1.0 | 6.0 | 0.00 | 0.24 | 0.24 | 92 | 1015.9 |
| 20260507211043 | 49 | 86 | 1.0 | 6.0 | 0.00 | 0.24 | 0.24 | 92 | 1015.7 |
| 20260507210545 | 49 | 63 | 2.0 | 8.0 | 0.00 | 0.24 | 0.24 | 92 | 1015.8 |
| 20260507210050 | 49 | 0 | 1.0 | 8.0 | 0.00 | 0.24 | 0.24 | 92 | 1015.7 |
| 20260507205544 | 50 | 54 | 4.0 | 8.0 | 0.00 | 0.24 | 0.24 | 92 | 1015.7 |
| 20260507205047 | 50 | 87 | 3.0 | 8.0 | 0.00 | 0.24 | 0.24 | 92 | 1015.7 |
| 20260507204601 | 50 | 106 | 3.0 | 10.0 | 0.00 | 0.24 | 0.24 | 92 | 1015.5 |
| 20260507204047 | 50 | 0 | 2.0 | 10.0 | 0.00 | 0.24 | 0.24 | 92 | 1015.4 |
| 20260507203544 | 50 | 102 | 3.0 | 10.0 | 0.00 | 0.24 | 0.24 | 91 | 1015.5 |
| 20260507203055 | 50 | 78 | 4.0 | 10.0 | 0.00 | 0.24 | 0.24 | 91 | 1015.3 |
| 20260507202545 | 50 | 71 | 4.0 | 8.0 | 0.00 | 0.24 | 0.24 | 91 | 1015.1 |
| 20260507202045 | 50 | 83 | 2.0 | 8.0 | 0.00 | 0.24 | 0.24 | 91 | 1015.1 |
| 20260507201602 | 51 | 77 | 3.0 | 8.0 | 0.00 | 0.24 | 0.24 | 90 | 1015.0 |
| 20260507201048 | 51 | 76 | 4.0 | 9.0 | 0.00 | 0.24 | 0.24 | 90 | 1015.1 |
| 20260507200548 | 51 | 86 | 3.0 | 9.0 | 0.00 | 0.24 | 0.24 | 90 | 1015.1 |
| 20260507200057 | 51 | 104 | 3.0 | 9.0 | 0.00 | 0.24 | 0.24 | 90 | 1015.0 |
| 20260507195548 | 51 | 78 | 4.0 | 9.0 | 0.00 | 0.24 | 0.24 | 90 | 1015.0 |
| 20260507195048 | 52 | 84 | 4.0 | 9.0 | 0.00 | 0.24 | 0.24 | 89 | 1015.0 |
| 20260507194603 | 52 | 106 | 4.0 | 8.0 | 0.00 | 0.24 | 0.24 | 89 | 1015.0 |
| 20260507194045 | 52 | 92 | 3.0 | 9.0 | 0.00 | 0.24 | 0.24 | 89 | 1014.9 |
| 20260507193548 | 52 | 65 | 2.0 | 9.0 | 0.00 | 0.24 | 0.24 | 89 | 1014.9 |
| 20260507193056 | 52 | 93 | 3.0 | 7.0 | 0.00 | 0.24 | 0.24 | 89 | 1014.8 |
| 20260507192545 | 52 | 92 | 2.0 | 7.0 | 0.00 | 0.24 | 0.24 | 89 | 1014.9 |
| 20260507192046 | 52 | 84 | 2.0 | 7.0 | 0.00 | 0.24 | 0.24 | 89 | 1015.0 |
| 20260507191614 | 52 | 105 | 3.0 | 7.0 | 0.00 | 0.24 | 0.24 | 89 | 1014.8 |
| 20260507191046 | 52 | 36 | 2.0 | 6.0 | 0.00 | 0.24 | 0.24 | 89 | 1014.8 |
| 20260507190548 | 52 | 65 | 1.0 | 4.0 | 0.00 | 0.24 | 0.24 | 89 | 1014.7 |
| 20260507190059 | 52 | 66 | 0.0 | 2.0 | 0.00 | 0.24 | 0.24 | 88 | 1014.7 |
| 20260507185544 | 52 | 0 | 0.0 | 2.0 | 0.00 | 0.24 | 0.24 | 88 | 1014.6 |
| 20260507185045 | 52 | 0 | 0.0 | 1.0 | 0.00 | 0.24 | 0.24 | 87 | 1014.6 |
| 20260507184603 | 52 | 0 | 0.0 | 2.0 | 0.00 | 0.24 | 0.24 | 86 | 1014.6 |
| 20260507184045 | 52 | 0 | 0.0 | 4.0 | 0.00 | 0.24 | 0.24 | 86 | 1014.5 |
| 20260507183548 | 52 | 0 | 0.0 | 5.0 | 0.00 | 0.24 | 0.24 | 86 | 1014.5 |
| 20260507183058 | 52 | 72 | 1.0 | 5.0 | 0.00 | 0.24 | 0.24 | 86 | 1014.3 |
| 20260507182546 | 52 | 18 | 1.0 | 5.0 | 0.00 | 0.24 | 0.24 | 85 | 1014.3 |
| 20260507182046 | 52 | 88 | 1.0 | 5.0 | 0.00 | 0.24 | 0.24 | 86 | 1014.1 |
| 20260507181556 | 52 | 352 | 1.0 | 5.0 | 0.00 | 0.24 | 0.24 | 85 | 1014.0 |
| 20260507181047 | 52 | 18 | 1.0 | 2.0 | 0.00 | 0.24 | 0.24 | 84 | 1013.9 |
| 20260507180547 | 52 | 0 | 0.0 | 2.0 | 0.00 | 0.24 | 0.24 | 84 | 1013.8 |
| 20260507180100 | 53 | 18 | 0.0 | 2.0 | 0.00 | 0.24 | 0.24 | 84 | 1013.8 |
| 20260507175548 | 53 | 0 | 0.0 | 1.0 | 0.00 | 0.24 | 0.24 | 83 | 1013.6 |
| 20260507175048 | 53 | 0 | 0.0 | 2.0 | 0.00 | 0.24 | 0.24 | 82 | 1013.4 |
| 20260507174558 | 53 | 18 | 0.0 | 2.0 | 0.00 | 0.24 | 0.24 | 81 | 1013.2 |
| 20260507174046 | 54 | 20 | 0.0 | 2.0 | 0.00 | 0.24 | 0.24 | 81 | 1013.1 |
| 20260507173546 | 54 | 0 | 0.0 | 2.0 | 0.00 | 0.24 | 0.24 | 81 | 1013.2 |
| 20260507173054 | 54 | 314 | 0.0 | 2.0 | 0.00 | 0.24 | 0.24 | 80 | 1013.2 |
| 20260507172546 | 55 | 0 | 0.0 | 2.0 | 0.00 | 0.24 | 0.24 | 79 | 1013.1 |
| 20260507172047 | 55 | 314 | 0.0 | 2.0 | 0.00 | 0.24 | 0.24 | 78 | 1012.9 |
| 20260507171556 | 55 | 0 | 0.0 | 2.0 | 0.00 | 0.24 | 0.24 | 77 | 1012.9 |
| 20260507171046 | 56 | 0 | 0.0 | 2.0 | 0.00 | 0.24 | 0.24 | 76 | 1013.0 |
| 20260507170546 | 56 | 0 | 0.0 | 3.0 | 0.00 | 0.24 | 0.24 | 76 | 1013.0 |
| 20260507170052 | 56 | 0 | 0.0 | 3.0 | 0.00 | 0.24 | 0.24 | 75 | 1013.0 |
| 20260507165545 | 56 | 325 | 1.0 | 6.0 | 0.00 | 0.24 | 0.24 | 75 | 1013.0 |
| 20260507165045 | 57 | 0 | 1.0 | 6.0 | 0.00 | 0.24 | 0.24 | 76 | 1013.1 |
| 20260507164610 | 57 | 277 | 1.0 | 11.0 | 0.00 | 0.24 | 0.24 | 76 | 1013.0 |
| 20260507164043 | 57 | 242 | 4.0 | 11.0 | 0.00 | 0.24 | 0.24 | 76 | 1013.1 |
| 20260507163547 | 57 | 274 | 6.0 | 11.0 | 0.00 | 0.24 | 0.24 | 74 | 1013.1 |
| 20260507163051 | 58 | 271 | 4.0 | 8.0 | 0.00 | 0.24 | 0.24 | 72 | 1013.1 |
| 20260507162547 | 58 | 284 | 3.0 | 7.0 | 0.00 | 0.24 | 0.24 | 71 | 1013.0 |
| 20260507162045 | 59 | 265 | 1.0 | 5.0 | 0.00 | 0.24 | 0.24 | 71 | 1013.0 |
| 20260507161554 | 59 | 277 | 1.0 | 5.0 | 0.00 | 0.24 | 0.24 | 71 | 1012.9 |
| 20260507161046 | 59 | 286 | 0.0 | 4.0 | 0.00 | 0.24 | 0.24 | 71 | 1012.9 |
| 20260507160547 | 60 | 0 | 0.0 | 6.0 | 0.00 | 0.24 | 0.24 | 71 | 1012.8 |
| 20260507160054 | 60 | 283 | 2.0 | 9.0 | 0.00 | 0.24 | 0.24 | 69 | 1012.8 |
| 20260507155545 | 61 | 317 | 5.0 | 9.0 | 0.00 | 0.24 | 0.24 | 66 | 1012.8 |
| 20260507155043 | 61 | 286 | 2.0 | 6.0 | 0.00 | 0.24 | 0.24 | 67 | 1012.7 |
| 20260507154554 | 62 | 244 | 2.0 | 4.0 | 0.00 | 0.24 | 0.24 | 69 | 1012.6 |
| 20260507154047 | 61 | 277 | 1.0 | 3.0 | 0.00 | 0.24 | 0.24 | 74 | 1012.6 |
| 20260507153547 | 61 | 325 | 0.0 | 3.0 | 0.00 | 0.24 | 0.24 | 74 | 1012.5 |
| 20260507153053 | 61 | 0 | 0.0 | 2.0 | 0.00 | 0.24 | 0.24 | 75 | 1012.5 |
| 20260507152545 | 61 | 0 | 0.0 | 2.0 | 0.00 | 0.24 | 0.24 | 75 | 1012.6 |
| 20260507152048 | 60 | 0 | 0.0 | 4.0 | 0.00 | 0.24 | 0.24 | 75 | 1012.5 |
| 20260507151552 | 60 | 95 | 0.0 | 4.0 | 0.00 | 0.24 | 0.24 | 76 | 1012.5 |
| 20260507151045 | 60 | 69 | 2.0 | 4.0 | 0.00 | 0.24 | 0.24 | 76 | 1012.6 |
| 20260507150545 | 60 | 0 | 2.0 | 4.0 | 0.00 | 0.24 | 0.24 | 77 | 1012.8 |
| 20260507150054 | 59 | 0 | 0.0 | 2.0 | 0.02 | 0.24 | 0.24 | 80 | 1012.7 |
| 20260507145544 | 59 | 0 | 1.0 | 2.0 | 0.07 | 0.24 | 0.24 | 83 | 1012.7 |
| 20260507145044 | 58 | 0 | 0.0 | 4.0 | 0.10 | 0.24 | 0.24 | 85 | 1012.7 |
| 20260507144552 | 57 | 0 | 1.0 | 4.0 | 0.16 | 0.24 | 0.24 | 88 | 1012.8 |
| 20260507144044 | 56 | 25 | 0.0 | 4.0 | 0.23 | 0.24 | 0.24 | 91 | 1012.8 |
| 20260507143543 | 55 | 295 | 0.0 | 4.0 | 0.23 | 0.24 | 0.24 | 91 | 1012.9 |
| 20260507143107 | 55 | 0 | 1.0 | 5.0 | 0.23 | 0.24 | 0.24 | 92 | 1012.8 |
| 20260507142543 | 54 | 298 | 2.0 | 5.0 | 0.23 | 0.24 | 0.24 | 92 | 1012.8 |
| 20260507142045 | 53 | 262 | 0.0 | 4.0 | 0.23 | 0.24 | 0.24 | 92 | 1012.9 |
| 20260507141607 | 52 | 0 | 1.0 | 6.0 | 0.23 | 0.24 | 0.24 | 90 | 1012.9 |
| 20260507141046 | 51 | 321 | 2.0 | 8.0 | 0.23 | 0.24 | 0.24 | 88 | 1013.0 |
| 20260507140547 | 51 | 300 | 3.0 | 8.0 | 0.24 | 0.24 | 0.24 | 86 | 1013.0 |
| 20260507140053 | 52 | 306 | 2.0 | 16.0 | 0.21 | 0.21 | 0.21 | 83 | 1013.0 |
| 20260507135544 | 54 | 303 | 4.0 | 16.0 | 0.17 | 0.17 | 0.17 | 79 | 1013.1 |
| 20260507135043 | 57 | 303 | 4.0 | 16.0 | 0.14 | 0.14 | 0.14 | 75 | 1012.8 |
| 20260507134555 | 60 | 290 | 6.0 | 15.0 | 0.06 | 0.06 | 0.06 | 73 | 1013.1 |
| 20260507134046 | 61 | 267 | 4.0 | 9.0 | 0.00 | 0.00 | 0.00 | 67 | 1012.8 |
| 20260507133544 | 61 | 259 | 3.0 | 9.0 | 0.00 | 0.00 | 0.00 | 68 | 1012.5 |
| 20260507133052 | 61 | 0 | 3.0 | 8.0 | 0.00 | 0.00 | 0.00 | 69 | 1012.6 |
| 20260507132543 | 61 | 277 | 2.0 | 7.0 | 0.00 | 0.00 | 0.00 | 67 | 1012.7 |
| 20260507132045 | 61 | 0 | 1.0 | 5.0 | 0.00 | 0.00 | 0.00 | 71 | 1012.7 |
| 20260507131610 | 62 | 215 | 0.0 | 8.0 | 0.00 | 0.00 | 0.00 | 71 | 1012.7 |
| 20260507131044 | 62 | 272 | 2.0 | 8.0 | 0.00 | 0.00 | 0.00 | 68 | 1012.8 |
| 20260507130543 | 63 | 268 | 2.0 | 7.0 | 0.00 | 0.00 | 0.00 | 65 | 1012.8 |
| 20260507130047 | 63 | 175 | 1.0 | 7.0 | 0.00 | 0.00 | 0.00 | 62 | 1012.8 |
| 20260507125543 | 63 | 131 | 2.0 | 9.0 | 0.00 | 0.00 | 0.00 | 62 | 1012.7 |
| 20260507125047 | 62 | 161 | 2.0 | 9.0 | 0.00 | 0.00 | 0.00 | 62 | 1012.8 |
| 20260507124551 | 62 | 218 | 4.0 | 9.0 | 0.00 | 0.00 | 0.00 | 60 | 1012.7 |
| 20260507124043 | 62 | 254 | 3.0 | 8.0 | 0.00 | 0.00 | 0.00 | 60 | 1012.7 |
| 20260507123543 | 62 | 220 | 1.0 | 8.0 | 0.00 | 0.00 | 0.00 | 63 | 1012.9 |
| 20260507123108 | 62 | 268 | 1.0 | 8.0 | 0.00 | 0.00 | 0.00 | 63 | 1012.8 |
| 20260507122543 | 62 | 332 | 3.0 | 8.0 | 0.00 | 0.00 | 0.00 | 63 | 1012.9 |
| 20260507122043 | 62 | 169 | 1.0 | 9.0 | 0.00 | 0.00 | 0.00 | 64 | 1013.0 |
| 20260507121555 | 62 | 130 | 1.0 | 9.0 | 0.00 | 0.00 | 0.00 | 63 | 1012.9 |
| 20260507121046 | 61 | 198 | 0.0 | 12.0 | 0.00 | 0.00 | 0.00 | 64 | 1012.8 |
| 20260507120545 | 61 | 246 | 4.0 | 12.0 | 0.00 | 0.00 | 0.00 | 62 | 1012.9 |
| 20260507120052 | 62 | 269 | 2.0 | 8.0 | 0.00 | 0.00 | 0.00 | 63 | 1013.0 |
| 20260507115543 | 62 | 269 | 3.0 | 11.0 | 0.00 | 0.00 | 0.00 | 64 | 1012.9 |
| 20260507115043 | 62 | 278 | 3.0 | 11.0 | 0.00 | 0.00 | 0.00 | 62 | 1012.9 |
| 20260507114553 | 61 | 243 | 2.0 | 10.0 | 0.00 | 0.00 | 0.00 | 64 | 1013.0 |
| 20260507114043 | 61 | 265 | 5.0 | 10.0 | 0.00 | 0.00 | 0.00 | 63 | 1013.1 |
| 20260507113544 | 61 | 275 | 5.0 | 13.0 | 0.00 | 0.00 | 0.00 | 62 | 1013.0 |
| 20260507113052 | 61 | 273 | 3.0 | 13.0 | 0.00 | 0.00 | 0.00 | 62 | 1013.1 |
| 20260507112543 | 61 | 273 | 6.0 | 13.0 | 0.00 | 0.00 | 0.00 | 63 | 1013.1 |
| 20260507112043 | 61 | 191 | 2.0 | 12.0 | 0.00 | 0.00 | 0.00 | 65 | 1013.0 |
| 20260507111559 | 61 | 263 | 4.0 | 12.0 | 0.00 | 0.00 | 0.00 | 63 | 1013.0 |
| 20260507111047 | 61 | 227 | 6.0 | 12.0 | 0.00 | 0.00 | 0.00 | 65 | 1013.0 |
| 20260507110544 | 61 | 300 | 7.0 | 12.0 | 0.00 | 0.00 | 0.00 | 64 | 1012.9 |
| 20260507110052 | 61 | 242 | 5.0 | 12.0 | 0.00 | 0.00 | 0.00 | 65 | 1012.9 |
| 20260507105543 | 61 | 311 | 5.0 | 11.0 | 0.00 | 0.00 | 0.00 | 65 | 1012.8 |
| 20260507105043 | 61 | 273 | 6.0 | 12.0 | 0.00 | 0.00 | 0.00 | 64 | 1012.9 |
| 20260507104559 | 61 | 265 | 5.0 | 12.0 | 0.00 | 0.00 | 0.00 | 64 | 1013.0 |
| 20260507104043 | 62 | 260 | 5.0 | 12.0 | 0.00 | 0.00 | 0.00 | 63 | 1012.9 |
| 20260507103543 | 62 | 239 | 5.0 | 14.0 | 0.00 | 0.00 | 0.00 | 64 | 1012.8 |
| 20260507103053 | 61 | 249 | 6.0 | 14.0 | 0.00 | 0.00 | 0.00 | 64 | 1012.8 |
| 20260507102544 | 61 | 269 | 4.0 | 12.0 | 0.00 | 0.00 | 0.00 | 64 | 1012.8 |
| 20260507102043 | 61 | 273 | 6.0 | 12.0 | 0.00 | 0.00 | 0.00 | 63 | 1012.8 |
| 20260507101554 | 61 | 301 | 4.0 | 14.0 | 0.00 | 0.00 | 0.00 | 66 | 1012.7 |
| 20260507101045 | 61 | 284 | 6.0 | 14.0 | 0.00 | 0.00 | 0.00 | 65 | 1012.6 |
| 20260507100544 | 60 | 258 | 6.0 | 15.0 | 0.00 | 0.00 | 0.00 | 67 | 1012.7 |
| 20260507100059 | 60 | 276 | 6.0 | 15.0 | 0.00 | 0.00 | 0.00 | 66 | 1012.6 |
| 20260507095544 | 60 | 279 | 7.0 | 14.0 | 0.00 | 0.00 | 0.00 | 68 | 1012.7 |
| 20260507095045 | 60 | 264 | 7.0 | 14.0 | 0.00 | 0.00 | 0.00 | 67 | 1012.6 |
| 20260507094557 | 60 | 292 | 5.0 | 13.0 | 0.00 | 0.00 | 0.00 | 68 | 1012.5 |
| 20260507094043 | 60 | 267 | 4.0 | 12.0 | 0.00 | 0.00 | 0.00 | 69 | 1012.5 |
| 20260507093544 | 59 | 300 | 7.0 | 12.0 | 0.00 | 0.00 | 0.00 | 68 | 1012.5 |
| 20260507093056 | 59 | 244 | 6.0 | 12.0 | 0.00 | 0.00 | 0.00 | 69 | 1012.4 |
| 20260507092545 | 59 | 272 | 5.0 | 12.0 | 0.00 | 0.00 | 0.00 | 69 | 1012.5 |
| 20260507092043 | 59 | 296 | 5.0 | 11.0 | 0.00 | 0.00 | 0.00 | 73 | 1012.3 |
| 20260507091554 | 58 | 268 | 6.0 | 11.0 | 0.00 | 0.00 | 0.00 | 72 | 1012.4 |
| 20260507091044 | 58 | 250 | 6.0 | 11.0 | 0.00 | 0.00 | 0.00 | 74 | 1012.3 |
| 20260507090544 | 57 | 306 | 5.0 | 11.0 | 0.00 | 0.00 | 0.00 | 75 | 1012.3 |
| 20260507090059 | 57 | 260 | 6.0 | 12.0 | 0.00 | 0.00 | 0.00 | 75 | 1012.2 |
| 20260507085544 | 57 | 248 | 4.0 | 12.0 | 0.00 | 0.00 | 0.00 | 76 | 1012.2 |
| 20260507085043 | 57 | 225 | 7.0 | 12.0 | 0.00 | 0.00 | 0.00 | 75 | 1012.2 |
| 20260507084555 | 57 | 252 | 3.0 | 12.0 | 0.00 | 0.00 | 0.00 | 78 | 1012.1 |
| 20260507084044 | 56 | 265 | 5.0 | 12.0 | 0.00 | 0.00 | 0.00 | 78 | 1012.1 |
| 20260507083544 | 56 | 287 | 6.0 | 14.0 | 0.00 | 0.00 | 0.00 | 78 | 1012.0 |
| 20260507083050 | 56 | 263 | 6.0 | 14.0 | 0.00 | 0.00 | 0.00 | 79 | 1012.0 |
| 20260507082544 | 56 | 261 | 5.0 | 12.0 | 0.00 | 0.00 | 0.00 | 80 | 1011.9 |
| 20260507082044 | 55 | 284 | 6.0 | 13.0 | 0.00 | 0.00 | 0.00 | 80 | 1011.9 |
| 20260507081556 | 55 | 292 | 4.0 | 13.0 | 0.00 | 0.00 | 0.00 | 82 | 1011.9 |
| 20260507081043 | 55 | 265 | 6.0 | 13.0 | 0.00 | 0.00 | 0.00 | 82 | 1011.9 |
| 20260507080544 | 55 | 297 | 7.0 | 13.0 | 0.00 | 0.00 | 0.00 | 82 | 1011.8 |
| 20260507080112 | 55 | 221 | 8.0 | 13.0 | 0.00 | 0.00 | 0.00 | 81 | 1011.7 |
| 20260507075544 | 55 | 273 | 8.0 | 13.0 | 0.00 | 0.00 | 0.00 | 82 | 1011.7 |
| 20260507075043 | 55 | 269 | 8.0 | 14.0 | 0.00 | 0.00 | 0.00 | 81 | 1011.8 |
| 20260507074557 | 55 | 279 | 5.0 | 14.0 | 0.00 | 0.00 | 0.00 | 82 | 1011.8 |
| 20260507074043 | 56 | 259 | 8.0 | 14.0 | 0.00 | 0.00 | 0.00 | 83 | 1011.9 |
| 20260507073546 | 56 | 248 | 4.0 | 14.0 | 0.00 | 0.00 | 0.00 | 84 | 1011.6 |
| 20260507073053 | 55 | 266 | 6.0 | 14.0 | 0.00 | 0.00 | 0.00 | 83 | 1011.7 |
| 20260507072544 | 55 | 290 | 8.0 | 14.0 | 0.00 | 0.00 | 0.00 | 83 | 1011.6 |
| 20260507072042 | 56 | 246 | 9.0 | 16.0 | 0.00 | 0.00 | 0.00 | 82 | 1011.6 |
| 20260507071553 | 56 | 282 | 8.0 | 16.0 | 0.00 | 0.00 | 0.00 | 82 | 1011.5 |
| 20260507071044 | 56 | 271 | 8.0 | 15.0 | 0.00 | 0.00 | 0.00 | 82 | 1011.4 |
| 20260507070544 | 55 | 265 | 8.0 | 13.0 | 0.00 | 0.00 | 0.00 | 83 | 1011.3 |
| 20260507070103 | 55 | 242 | 7.0 | 11.0 | 0.00 | 0.00 | 0.00 | 83 | 1011.2 |
| 20260507065547 | 55 | 261 | 5.0 | 13.0 | 0.00 | 0.00 | 0.00 | 83 | 1011.3 |
| 20260507065043 | 55 | 289 | 7.0 | 13.0 | 0.00 | 0.00 | 0.00 | 83 | 1011.3 |
| 20260507064625 | 55 | 292 | 6.0 | 12.0 | 0.00 | 0.00 | 0.00 | 83 | 1011.2 |
| 20260507064043 | 55 | 246 | 3.0 | 12.0 | 0.00 | 0.00 | 0.00 | 85 | 1011.1 |
| 20260507063544 | 54 | 289 | 5.0 | 12.0 | 0.00 | 0.00 | 0.00 | 85 | 1011.2 |
| 20260507063117 | 54 | 267 | 6.0 | 11.0 | 0.00 | 0.00 | 0.00 | 86 | 1011.0 |
| 20260507062543 | 54 | 290 | 4.0 | 10.0 | 0.00 | 0.00 | 0.00 | 88 | 1011.0 |
| 20260507062043 | 54 | 257 | 3.0 | 8.0 | 0.00 | 0.00 | 0.00 | 89 | 1010.9 |
| 20260507061552 | 54 | 0 | 0.0 | 3.0 | 0.00 | 0.00 | 0.00 | 90 | 1010.9 |
| 20260507061042 | 53 | 208 | 0.0 | 3.0 | 0.00 | 0.00 | 0.00 | 90 | 1010.8 |
| 20260507060542 | 53 | 214 | 1.0 | 5.0 | 0.00 | 0.00 | 0.00 | 89 | 1010.9 |
| 20260507060110 | 53 | 282 | 1.0 | 5.0 | 0.00 | 0.00 | 0.00 | 89 | 1010.9 |
| 20260507055545 | 53 | 0 | 2.0 | 5.0 | 0.00 | 0.00 | 0.00 | 89 | 1010.9 |
| 20260507055043 | 53 | 0 | 1.0 | 5.0 | 0.00 | 0.00 | 0.00 | 89 | 1010.9 |
| 20260507054557 | 53 | 242 | 1.0 | 4.0 | 0.00 | 0.00 | 0.00 | 89 | 1010.8 |
| 20260507054045 | 53 | 297 | 0.0 | 7.0 | 0.00 | 0.00 | 0.00 | 88 | 1010.7 |
| 20260507053545 | 53 | 329 | 1.0 | 7.0 | 0.00 | 0.00 | 0.00 | 88 | 1010.6 |
| 20260507053058 | 53 | 295 | 1.0 | 7.0 | 0.00 | 0.00 | 0.00 | 88 | 1010.5 |
| 20260507052544 | 53 | 197 | 1.0 | 3.0 | 0.00 | 0.00 | 0.00 | 89 | 1010.4 |
| 20260507052044 | 53 | 270 | 0.0 | 2.0 | 0.00 | 0.00 | 0.00 | 89 | 1010.4 |
| 20260507051605 | 53 | 280 | 0.0 | 3.0 | 0.00 | 0.00 | 0.00 | 89 | 1010.4 |
| 20260507051045 | 53 | 0 | 0.0 | 3.0 | 0.00 | 0.00 | 0.00 | 89 | 1010.3 |
| 20260507050544 | 53 | 280 | 0.0 | 2.0 | 0.00 | 0.00 | 0.00 | 89 | 1010.3 |
| 20260507050057 | 53 | 280 | 0.0 | 2.0 | 0.00 | 0.00 | 0.00 | 90 | 1010.2 |
| 20260507045545 | 53 | 274 | 0.0 | 2.0 | 0.00 | 0.00 | 0.00 | 90 | 1010.1 |
| 20260507045045 | 52 | 0 | 0.0 | 2.0 | 0.00 | 0.00 | 0.00 | 89 | 1010.1 |
| 20260507044558 | 52 | 0 | 0.0 | 1.0 | 0.00 | 0.00 | 0.00 | 89 | 1009.9 |
| 20260507044048 | 52 | 0 | 0.0 | 1.0 | 0.00 | 0.00 | 0.00 | 89 | 1009.8 |
| 20260507043545 | 52 | 0 | 0.0 | 1.0 | 0.00 | 0.00 | 0.00 | 88 | 1009.8 |
| 20260507043056 | 52 | 0 | 0.0 | 1.0 | 0.00 | 0.00 | 0.00 | 88 | 1009.8 |
| 20260507042545 | 52 | 0 | 0.0 | 2.0 | 0.00 | 0.00 | 0.00 | 87 | 1009.8 |
| 20260507042044 | 53 | 0 | 0.0 | 2.0 | 0.00 | 0.00 | 0.00 | 87 | 1009.6 |
| 20260507041600 | 53 | 113 | 1.0 | 2.0 | 0.00 | 0.00 | 0.00 | 88 | 1009.4 |
| 20260507041044 | 53 | 0 | 0.0 | 0.0 | 0.00 | 0.00 | 0.00 | 88 | 1009.4 |
| 20260507040545 | 53 | 0 | 0.0 | 1.0 | 0.00 | 0.00 | 0.00 | 88 | 1009.3 |
| 20260507040057 | 53 | 0 | 0.0 | 3.0 | 0.00 | 0.00 | 0.00 | 88 | 1009.2 |
| 20260507035544 | 53 | 0 | 0.0 | 3.0 | 0.00 | 0.00 | 0.00 | 88 | 1009.2 |
| 20260507035045 | 53 | 113 | 0.0 | 4.0 | 0.00 | 0.00 | 0.00 | 88 | 1009.0 |
| 20260507034557 | 53 | 0 | 0.0 | 6.0 | 0.00 | 0.00 | 0.00 | 88 | 1009.0 |
| 20260507034044 | 53 | 275 | 2.0 | 6.0 | 0.00 | 0.00 | 0.00 | 88 | 1009.1 |
| 20260507033547 | 53 | 267 | 2.0 | 6.0 | 0.00 | 0.00 | 0.00 | 87 | 1009.0 |
| 20260507033053 | 53 | 246 | 1.0 | 6.0 | 0.00 | 0.00 | 0.00 | 87 | 1009.0 |
| 20260507032545 | 53 | 0 | 1.0 | 6.0 | 0.00 | 0.00 | 0.00 | 87 | 1008.9 |
| 20260507032044 | 53 | 297 | 0.0 | 4.0 | 0.00 | 0.00 | 0.00 | 87 | 1008.9 |
| 20260507031553 | 53 | 309 | 2.0 | 4.0 | 0.00 | 0.00 | 0.00 | 87 | 1009.0 |
| 20260507031045 | 53 | 290 | 0.0 | 3.0 | 0.00 | 0.00 | 0.00 | 87 | 1008.8 |
| 20260507030545 | 53 | 252 | 1.0 | 3.0 | 0.00 | 0.00 | 0.00 | 87 | 1008.9 |
| 20260507030055 | 53 | 279 | 1.0 | 3.0 | 0.00 | 0.00 | 0.00 | 87 | 1008.6 |
| 20260507025544 | 53 | 271 | 1.0 | 3.0 | 0.00 | 0.00 | 0.00 | 86 | 1008.6 |
| 20260507025044 | 53 | 251 | 2.0 | 3.0 | 0.00 | 0.00 | 0.00 | 86 | 1008.5 |
| 20260507024556 | 53 | 0 | 1.0 | 3.0 | 0.00 | 0.00 | 0.00 | 86 | 1008.4 |
| 20260507024045 | 53 | 276 | 0.0 | 3.0 | 0.00 | 0.00 | 0.00 | 86 | 1008.4 |
| 20260507023544 | 53 | 273 | 1.0 | 3.0 | 0.00 | 0.00 | 0.00 | 86 | 1008.4 |